Location: Fridtjovneset
(79.2667°N, 11.6000°E)
Time: 00:28:33
(UTC+00:00)

Daily predictions for brighter satellites

Satellite Brightness Start Highest point End
(mag) Time Altitude Azimuth Time Altitude Azimuth Time Altitude Azimuth
Cosmos 1340 Rocket 2.8 00:01:00 10° NW 00:05:06 86° SW 00:09:09 10° SE
H-2A R/B 2.6 00:00:45 10° E 00:05:09 67° N 00:09:28 10° WNW
Meteor 1-20 Rocket 4.2 00:00:01 10° NW 00:05:44 79° SW 00:11:19 10° SE
DELTA 2 DEB (DPAF) 4.1 00:01:21 10° SE 00:05:50 73° SW 00:10:19 10° NW
Cosmos 1805 4.0 00:03:25 10° W 00:07:16 55° NNW 00:11:08 10° ENE
SJ 16-02 1.6 00:03:57 10° WSW 00:08:15 49° S 00:12:34 10° E
Okean 1 Rocket 3.4 00:04:40 10° WSW 00:09:03 70° NNW 00:13:25 10° NE
Cosmos 2098 Rocket 4.0 00:02:53 10° NNW 00:09:04 55° W 00:13:45 12° S
Cosmos 1470 Rocket 3.9 00:05:24 10° NW 00:09:56 73° NNE 00:14:25 10° ESE
Cosmos 1455 Rocket 3.1 00:05:39 10° SW 00:10:02 83° NW 00:14:28 10° NE
Cosmos 1869 Rocket 4.2 00:05:42 10° WNW 00:10:03 62° NNE 00:14:26 10° ESE
CZ-2C R/B 3.0 00:05:42 10° E 00:11:00 71° NNE 00:16:27 10° WNW
Cosmos 1933 Rocket 4.0 00:06:55 10° NW 00:11:17 68° NNE 00:15:41 10° ESE
Meteor 1-15 Rocket 4.5 00:05:44 10° W 00:11:22 76° NNW 00:17:06 10° ENE
CZ-2D R/B 3.5 00:06:41 10° NNE 00:11:35 33° E 00:16:25 10° SSE
ERS-2 2.4 00:08:00 10° ENE 00:11:40 71° NNW 00:15:18 10° WSW
Cosmos 2173 Rocket 4.0 00:06:46 12° SSW 00:12:29 77° ESE 00:18:40 10° NE
Cosmos 1666 Rocket 3.6 00:09:18 10° NW 00:13:41 83° NE 00:18:04 10° SE
Cosmos 1802 Rocket 4.1 00:08:16 12° SSW 00:14:03 73° ESE 00:20:14 10° NNE
Cosmos 1470 3.3 00:10:45 10° WSW 00:14:43 62° NNW 00:18:42 10° ENE
Cosmos 2061 Rocket 4.2 00:09:20 12° SSW 00:15:07 69° ESE 00:21:24 10° NNE
Meteor 1-28 Rocket 3.2 00:11:55 10° SSE 00:15:43 65° WSW 00:19:32 10° NW
Cosmos 1743 3.5 00:11:58 10° WNW 00:15:51 58° NNE 00:19:44 10° E
Cosmos 1300 2.7 00:12:48 11° SW 00:16:29 90° SE 00:20:20 10° NE
Cosmos 2058 Rocket 3.5 00:14:10 13° S 00:18:10 55° ESE 00:22:37 10° NE
Cosmos 2278 Rocket 2.9 00:13:44 10° W 00:18:42 32° SSW 00:23:39 10° SSE
Cosmos 1606 Rocket 3.7 00:14:51 13° SSW 00:18:46 66° ESE 00:23:13 10° NE
Cosmos 1544 Rocket 3.6 00:14:52 10° SW 00:19:20 87° NW 00:23:50 10° NE
Cosmos 1821 Rocket 4.3 00:13:45 10° WSW 00:20:10 74° NNW 00:26:37 10° NE
Cosmos 1980 Rocket 3.6 00:15:53 10° S 00:20:11 24° SE 00:24:35 10° ENE
Meteor 2-10 4.3 00:15:11 10° WSW 00:20:46 78° NNW 00:26:10 10° ENE
Cosmos 1437 4.3 00:18:54 10° SSE 00:21:00 20° ESE 00:23:07 10° NE
Cosmos 1725 Rocket 4.2 00:16:52 12° SSW 00:22:46 71° ESE 00:29:02 10° NNE
SL-08 R/B 3.2 00:18:22 10° SE 00:23:01 82° SW 00:27:43 10° NW
Cosmos 1733 Rocket 3.8 00:18:52 10° WNW 00:23:11 58° NNE 00:27:30 10° E
USA 281 3.3 00:17:08 10° E 00:23:38 57° S 00:30:08 10° WSW
Cosmos 990 Rocket 4.3 00:19:00 10° SW 00:23:58 47° SSE 00:28:58 10° E
SKYMED 2 4.0 00:20:23 10° ESE 00:24:44 67° NNE 00:29:05 10° WNW
Cosmos 389 Rocket 2.4 00:21:43 10° SW 00:25:11 90° N 00:28:39 10° NE
PSLV R/B 4.1 00:21:01 10° NE 00:25:12 50° ESE 00:28:59 12° S
Cosmos 2369 Rocket 2.7 00:20:17 10° WSW 00:25:25 37° S 00:30:32 10° ESE
Meteor 1-11 Rocket 4.0 00:19:51 10° WNW 00:25:53 84° NNE 00:31:55 10° ESE
Meteor 1-5 Rocket 4.1 00:20:30 10° NW 00:26:02 88° SW 00:31:26 10° SE
ATLAS 3B R/B 4.3 00:22:15 10° S 00:26:21 17° SE 00:30:33 10° E
Cosmos 2297 4.3 00:22:04 10° WSW 00:27:17 36° SSW 00:32:30 10° SE
Cosmos 1943 Rocket 2.7 00:22:31 10° WSW 00:27:37 36° SSW 00:32:44 10° SE
Cosmos 1782 Rocket 4.3 00:23:22 10° W 00:27:46 57° N 00:32:07 10° ENE
Thor Agena Rocket 4.1 00:23:05 10° NE 00:28:12 51° ESE 00:33:11 11° S
IRAS Rocket 4.3 00:22:38 10° ESE 00:28:19 90° NNE 00:34:01 10° WNW
Cosmos 1766 4.0 00:24:49 10° W 00:28:41 54° N 00:32:31 10° ENE
MTI 4.2 00:26:11 10° NE 00:29:07 46° ESE 00:31:33 14° S
Cosmos 2151 3.8 00:25:37 10° NNW 00:29:30 36° W 00:32:52 13° SSW
IKONOS-2 4.5 00:26:52 10° SSE 00:31:07 70° SW 00:35:22 10° NW
SL-16 R/B 4.1 00:27:47 10° SSE 00:31:32 18° ESE 00:35:17 10° ENE
Cosmos 2151 Rocket 4.2 00:27:58 10° W 00:32:27 61° NNW 00:36:55 10° ENE
Cosmos 1544 3.5 00:29:04 10° NW 00:32:45 67° NNE 00:36:26 10° ESE
Cosmos 2228 3.1 00:29:41 12° SSW 00:33:36 76° SE 00:37:58 10° NE
Cosmos 1437 Rocket 4.1 00:29:50 10° SSE 00:33:36 34° ESE 00:37:21 10° NE
Cosmos 2263 Rocket 4.0 00:31:07 10° WNW 00:33:54 14° W 00:36:41 10° SW
SME Rocket 4.4 00:25:20 10° ESE 00:34:09 84° SSW 00:39:48 10° WNW
Cosmos 1455 2.3 00:31:11 13° SSW 00:34:36 70° ESE 00:38:28 10° NE
EO 1 Del DPAF 4.3 00:31:32 10° NE 00:34:59 35° ESE 00:38:25 10° S
Terra 4.3 00:32:40 10° WNW 00:35:03 14° NW 00:37:26 10° NNW
USA 81 4.1 00:31:49 12° SSW 00:36:48 87° WNW 00:42:09 10° NNE
Cosmos 968 Rocket 3.8 00:32:07 10° W 00:37:07 44° SSW 00:42:06 10° SE
Cosmos 1812 Rocket 4.4 00:33:08 10° S 00:37:18 44° ESE 00:41:28 10° NNE
Cosmos 1898 Rocket 3.9 00:32:18 10° SW 00:37:18 47° SSE 00:42:23 10° E
Cosmos 372 Rocket 4.5 00:32:36 10° SW 00:37:25 42° SSE 00:42:15 10° E
H-2A R/B 3.5 00:33:44 10° NE 00:37:55 86° NW 00:42:05 10° SW
ADEOS Rocket 3.8 00:30:42 10° S 00:38:08 56° WSW 00:45:50 10° NNW
Meteor 2-14 Rocket 4.5 00:32:19 10° NW 00:38:23 71° WSW 00:44:28 10° SSE
Helios 1A 3.8 00:35:57 12° SSW 00:39:26 36° W 00:43:22 10° NNW
SL-16 R/B 2.9 00:33:35 10° S 00:39:40 49° WSW 00:45:45 10° NNW
Cosmos 2292 Rocket 3.1 00:35:54 10° NW 00:39:55 60° WSW 00:43:08 10° SSE
Cosmos 1459 Rocket 4.1 00:34:23 11° SSW 00:40:34 85° SE 00:46:55 10° NE
Cosmos 1666 2.7 00:37:43 10° NW 00:41:30 85° NE 00:45:18 10° SE
Cosmos 1766 Rocket 4.0 00:38:19 10° NNW 00:42:37 46° WSW 00:46:55 10° S
Cosmos 2016 Rocket 4.1 00:37:26 11° SSW 00:43:32 79° ESE 00:49:51 10° NE
Cosmos 1503 Rocket 4.2 00:39:19 10° W 00:44:16 47° SSW 00:49:14 10° ESE
Meteor 2-10 Rocket 3.8 00:38:44 11° SW 00:44:28 78° SE 00:50:15 10° NE
IDEFIX/ARIANE 42P 4.3 00:41:31 10° NNE 00:46:05 29° E 00:50:41 10° SE
CZ-2C R/B 4.0 00:42:34 10° ENE 00:47:06 70° NNW 00:51:43 10° W
Cosmos 2026 Rocket 4.0 00:41:29 10° NNW 00:47:34 66° WSW 00:53:45 10° S
Meteor 2-21 4.5 00:42:01 10° NNW 00:48:04 69° WSW 00:54:11 10° SSE
Cosmos 2100 Rocket 4.1 00:42:47 11° SW 00:48:55 88° SE 00:55:15 10° NE
Cosmos 1633 4.3 00:46:37 10° NNW 00:49:16 20° W 00:51:49 10° SW
Cosmos 1697 Rocket 3.8 00:45:37 11° SSW 00:50:09 29° SE 00:54:59 10° E
Cosmos 1869 4.4 00:46:29 10° SSE 00:50:13 38° E 00:54:00 10° NNE
Lacrosse 4 Rocket 3.3 00:49:10 10° WSW 00:50:32 11° SW 00:50:45 11° SW
DMSP B5D2-2 4.5 00:45:40 10° E 00:50:57 71° NNE 00:56:15 10° WNW
Cosmos 1408 Rocket 3.8 00:47:40 10° NNW 00:52:03 53° WSW 00:56:25 10° S
Cosmos 1464 Rocket 4.5 00:46:40 10° S 00:52:38 56° E 00:58:38 10° NNE
Cosmos 1733 4.1 00:50:05 10° W 00:53:53 53° N 00:57:41 10° ENE
Sich 1 3.0 00:49:35 10° NW 00:54:00 73° WSW 00:58:26 10° SSE
Cosmos 1242 Rocket 3.8 00:51:01 10° S 00:54:08 31° ESE 00:57:16 10° NE
Cosmos 1805 Rocket 3.6 00:50:35 10° NW 00:54:57 68° WSW 00:59:23 10° SSE
Cosmos 1758 3.9 00:52:03 10° W 00:56:06 59° NNW 01:00:07 10° ENE
Cosmos 1500 Rocket 3.6 00:52:25 10° NW 00:56:43 58° WSW 01:00:58 10° SSE
Cosmos 1633 Rocket 3.1 00:53:15 10° NW 00:57:43 84° SW 01:02:11 10° SE
Cosmos 1354 Rocket 4.3 00:53:31 10° W 00:58:32 47° SSW 01:03:33 10° SE
Cosmos 1238 Rocket 4.2 00:54:05 10° WNW 00:59:36 59° N 01:04:11 10° E
Cosmos 1777 Rocket 4.2 00:54:39 10° W 00:59:41 48° S 01:04:42 10° ESE
Meteor 2-16 Rocket 4.5 00:53:51 10° NW 01:00:01 73° WSW 01:06:10 10° SSE
Cosmos 1689 Rocket 3.3 00:57:23 10° ENE 01:00:02 41° N 01:02:42 10° WNW
Helios 1B rocket 4.2 00:57:41 10° NNE 01:01:19 28° E 01:04:55 10° SSE
Cosmos 1975 3.5 00:57:38 10° WNW 01:01:38 59° NNE 01:05:38 10° E
Cosmos 1726 Rocket 3.6 00:58:38 12° SSW 01:02:47 80° SE 01:07:16 10° NE
Cosmos 1536 3.1 00:59:15 10° NW 01:03:17 75° NE 01:07:18 10° ESE
Meteor 2-21 Rocket 4.5 00:57:15 10° NNW 01:03:18 69° WSW 01:09:24 10° SSE
Cosmos 405 3.3 01:01:14 10° W 01:04:44 66° NNW 01:08:13 10° ENE
MINOTAUR 4 R/B 4.4 01:02:22 10° S 01:05:48 45° WSW 01:09:15 10° NW
Cosmos 1486 Rocket 4.4 01:01:45 10° W 01:06:46 43° SSW 01:11:48 10° SE
Cosmos-2242 3.8 01:02:51 10° S 01:07:00 47° ESE 01:11:12 10° NNE
Meteor 2-9 Rocket 4.5 01:01:21 10° WNW 01:07:15 81° NNE 01:13:02 10° ESE
Cosmos 1315 Rocket 3.3 01:03:33 10° W 01:07:37 67° N 01:11:44 10° E
Cosmos 2322 Rocket 4.0 01:04:03 10° SSE 01:08:00 20° ESE 01:11:58 10° ENE
Nadezhda 4 Rocket 4.3 01:02:20 10° NNW 01:08:20 50° W 01:14:15 10° SSW
Cosmos 2366 rocket 4.5 01:02:40 10° W 01:08:48 64° N 01:14:59 10° ENE
Cosmos 1300 Rocket 4.3 01:04:55 10° W 01:09:15 57° N 01:13:34 10° ENE
ARGOS Delta rocket 4.0 01:04:31 10° NNE 01:09:23 81° ESE 01:14:25 11° SSW
Cosmos 1356 Rocket 3.6 01:08:00 10° WNW 01:12:21 82° NNE 01:16:42 10° ESE
COSMO-SKYMED 1 2.8 01:08:22 10° ESE 01:12:45 78° NNE 01:17:08 10° NW
CENTAUR R/B 4.0 01:07:40 10° SW 01:13:11 24° S 01:19:20 10° SE
Meteor 1-25 Rocket 4.4 01:07:51 10° NW 01:13:36 61° WSW 01:19:23 10° SSE
Okean 3 Rocket 4.2 01:10:41 10° NNW 01:14:46 38° W 01:18:51 10° SSW
Cosmos 1908 Rocket 4.3 01:10:36 10° WNW 01:15:03 60° NNE 01:19:30 10° E
MOS 1 Rocket 3.0 01:10:56 10° SSE 01:15:20 76° SW 01:19:40 10° NW
SAR-Lupe-4 4.3 01:11:51 10° E 01:15:24 57° N 01:18:57 10° WNW
Aureole 1 Rocket 4.3 01:09:19 10° WNW 01:15:29 39° SW 01:20:19 10° SSE
Cosmos 1656 Rocket 4.2 01:11:03 10° WSW 01:16:02 36° S 01:20:57 10° SE
Cosmos 2233 Rocket 4.1 01:10:25 10° SSW 01:16:39 80° ESE 01:22:55 10° NE
Cosmos 1726 2.9 01:14:00 10° W 01:17:36 52° N 01:21:11 10° ENE
Resurs 1-4 Rocket 3.0 01:12:36 10° NNE 01:17:41 45° ESE 01:22:45 10° S
Cosmos 1862 4.1 01:14:04 10° NNW 01:17:50 37° W 01:21:35 10° SSW
UNK 4.5 01:13:45 10° SSW 01:18:01 36° W 01:22:17 10° NNW
Cosmos 1125 Rocket 4.2 01:13:51 11° SW 01:18:41 41° SSE 01:23:37 10° E
Cosmos 1400 Rocket 3.1 01:14:57 10° WNW 01:19:01 72° NNE 01:23:00 10° ESE
SAR-Lupe-2 3.9 01:16:19 10° NE 01:19:54 61° SE 01:23:21 11° SSW
Cosmos 1844 Rocket 4.2 01:18:42 10° WNW 01:22:11 17° WSW 01:25:35 10° SSW
Landsat 5 3.4 01:18:20 10° ESE 01:22:13 84° NE 01:26:05 10° NW
CZ-4C R/B 3.2 01:19:01 10° SSE 01:22:27 49° WSW 01:25:52 10° NW
CZ-4C R/B 3.3 01:19:05 10° ESE 01:22:32 73° NE 01:26:04 10° NW
Meteor 2-1 Rocket 4.4 01:18:35 10° SSW 01:24:23 73° SE 01:30:08 10° NE
Cosmos 1655 Rocket 4.0 01:18:40 10° NNW 01:24:55 73° WSW 01:31:07 10° SSE
Cosmos 1709 Rocket 4.3 01:19:10 10° NW 01:25:22 75° NNE 01:31:30 10° ESE
Meteor 1-4 Rocket 2.6 01:22:31 11° SW 01:26:08 85° SE 01:29:48 10° NE
Cosmos 1602 3.9 01:22:48 10° NW 01:26:41 57° WSW 01:30:33 10° SSE
Cosmos 1953 2.9 01:26:54 10° W 01:30:54 59° NNW 01:34:56 10° ENE
Cosmos 1908 3.8 01:28:19 10° W 01:32:13 58° NNW 01:36:07 10° ENE
Cosmos 1934 Rocket 4.3 01:27:12 10° WSW 01:33:27 68° NNW 01:39:37 10° ENE
CZ-4B R/B 2.0 01:30:27 10° E 01:33:27 55° NNE 01:36:26 10° NW
Cosmos 2333 Rocket 4.5 01:30:04 10° SE 01:33:27 16° ESE 01:36:51 10° ENE
Cosmos 1500 3.2 01:30:07 10° NW 01:33:49 60° WSW 01:37:32 10° SSE
Cosmos 1937 Rocket 3.8 01:28:54 10° WSW 01:33:51 48° S 01:38:48 10° E
Meteor 1-14 Rocket 4.3 01:30:56 10° NW 01:36:51 67° WSW 01:42:38 10° SSE
Cosmos 1743 Rocket 3.9 01:32:41 10° NNW 01:36:54 46° WSW 01:41:10 10° S
ARIANE 5 R/B 4.5 01:33:08 10° NNE 01:37:36 28° E 01:42:01 10° SE
Okean 2 Rocket 3.8 01:33:22 10° WNW 01:37:45 57° N 01:42:09 10° E
Aureole 3 4.3 01:33:45 10° S 01:38:33 51° ESE 01:42:23 10° NE
Cosmos 2184 Rocket 4.5 01:33:08 10° WNW 01:39:26 69° NNE 01:45:40 10° ESE
ADEOS II 3.1 01:35:45 10° NNE 01:40:47 43° ESE 01:45:48 10° S
H-2A R/B 2.3 01:36:38 10° ESE 01:41:06 82° NNE 01:45:27 10° NW
Cosmos 1340 Rocket 3.0 01:37:27 10° NW 01:41:25 50° WSW 01:45:19 10° SSE
Cosmos 1745 Rocket 4.1 01:35:10 10° NW 01:41:29 85° NE 01:47:42 10° SE
Cosmos 2360 Rocket 4.1 01:37:33 10° SSE 01:41:37 21° ESE 01:45:42 10° ENE
Sich 1 Rocket 4.3 01:37:46 10° WNW 01:42:16 58° N 01:46:43 10° E
Cosmos 1605 Rocket 4.3 01:36:22 10° WSW 01:42:31 70° NNW 01:48:47 10° ENE
Cosmos 2221 3.7 01:39:18 10° S 01:43:26 41° E 01:47:33 10° NNE
Cosmos 1805 4.0 01:39:50 10° WNW 01:43:42 56° NNE 01:47:33 10° E
ERS-2 2.7 01:41:27 10° E 01:45:04 62° N 01:48:42 10° W
Cosmos 1092 Rocket 4.3 01:40:26 10° NNW 01:46:20 47° W 01:52:10 10° SSW
SJ 16-02 1.7 01:42:10 10° W 01:46:27 47° SSW 01:50:43 10° SE
Okean 1 Rocket 3.7 01:43:05 10° W 01:47:24 57° N 01:51:43 10° ENE
Cosmos 1470 Rocket 3.6 01:43:26 10° NW 01:47:56 73° WSW 01:52:25 10° SSE
Cosmos 1455 Rocket 3.6 01:43:53 10° W 01:48:13 60° NNW 01:52:36 10° ENE
Cosmos 1869 Rocket 3.6 01:43:50 10° NW 01:48:15 87° NE 01:52:40 10° SE
Meteor 1-20 Rocket 4.5 01:43:02 10° NW 01:48:30 50° WSW 01:53:52 10° S
Cosmos 1933 Rocket 3.5 01:44:58 10° NW 01:49:21 80° SW 01:53:45 10° SSE
Meteor 1-28 Rocket 4.0 01:46:45 10° SSW 01:50:16 34° W 01:53:47 10° NNW
Cosmos 1470 3.6 01:47:16 10° WNW 01:51:12 54° N 01:55:09 10° E
Cosmos 2266 Rocket 4.0 01:45:06 10° NNW 01:51:20 66° WSW 01:57:26 10° S
CZ-2C R/B 2.7 01:46:00 10° SE 01:51:20 88° NE 01:56:49 10° NW
Cosmos 1666 Rocket 3.6 01:47:15 10° NW 01:51:33 59° WSW 01:55:49 10° SSE
Cosmos 1743 2.8 01:47:57 10° NW 01:51:54 86° NE 01:55:50 10° SE
Cosmos 1300 3.2 01:48:33 10° WSW 01:52:21 60° NNW 01:56:10 10° ENE
Cosmos 1437 3.0 01:49:49 10° SSW 01:52:26 45° SE 01:55:03 10° NE
CZ-2D R/B 2.8 01:47:18 10° NE 01:52:40 54° ESE 01:57:57 10° S
Cosmos 2058 Rocket 3.2 01:51:33 10° SW 01:56:07 88° NW 02:00:41 10° NE
Cosmos 1606 Rocket 3.7 01:52:13 10° SW 01:56:40 77° NW 02:01:11 10° NE
Cosmos 1544 Rocket 4.0 01:53:04 10° WSW 01:57:30 62° NNW 02:01:57 10° ENE
Cosmos 2154 Rocket 4.5 01:51:39 10° WNW 01:58:02 69° NNE 02:04:23 10° ESE
Cosmos 2173 Rocket 4.1 01:51:54 10° WSW 01:58:02 76° NW 02:04:14 10° NE
Cosmos 1802 Rocket 4.1 01:53:30 10° SW 01:59:46 79° NW 02:05:59 10° NE
Cosmos 389 Rocket 2.8 01:56:33 10° W 01:59:59 65° N 02:03:25 10° ENE
MTI 3.6 01:57:37 10° NE 02:00:38 84° NW 02:03:40 10° SW
Cosmos 2061 Rocket 4.1 01:54:36 10° SW 02:00:53 82° NW 02:07:15 10° NE
SKYMED 2 3.6 01:56:33 10° SE 02:00:55 87° SW 02:05:19 10° NW
Cosmos 2219 Rocket 4.4 01:57:27 10° SSE 02:01:03 18° ESE 02:04:39 10° ENE
SL-08 R/B 3.5 01:56:47 10° S 02:01:17 49° WSW 02:05:51 10° NW
Cosmos 1733 Rocket 3.3 01:57:01 10° NW 02:01:23 77° NE 02:05:46 10° ESE
Cosmos 2278 Rocket 3.3 01:57:12 10° WNW 02:01:30 22° SW 02:05:47 10° S
PSLV R/B 3.6 01:57:59 10° NE 02:02:18 86° SE 02:06:33 10° SW
Cosmos 1980 Rocket 3.2 01:57:59 10° SSW 02:02:58 33° SSE 02:07:59 10° E
Meteor 2-10 4.4 01:57:34 10° WNW 02:03:07 74° N 02:08:27 10° E
CZ-4 R/B 4.2 01:58:29 10° NE 02:03:19 63° ESE 02:08:02 10° SSW
Cosmos 1766 4.0 02:01:19 10° WNW 02:05:12 56° NNE 02:09:03 10° E
Cosmos 990 Rocket 4.3 02:00:18 10° W 02:05:18 48° S 02:10:20 10° ESE
Cosmos 1782 Rocket 4.2 02:01:43 10° WNW 02:06:08 63° NNE 02:10:31 10° ESE
Cosmos 1544 3.0 02:04:08 10° NW 02:07:49 73° SW 02:11:31 10° SSE
Thor Agena Rocket 3.7 02:02:47 10° NE 02:08:04 79° SE 02:13:23 10° SW
Cosmos 1725 Rocket 4.1 02:01:56 10° SW 02:08:17 81° NW 02:14:38 10° NE
Cosmos 2369 Rocket 2.9 02:03:33 10° W 02:08:30 32° SSW 02:13:25 10° SSE
Meteor 1-5 Rocket 4.2 02:03:32 10° NW 02:08:55 59° WSW 02:14:10 10° SSE
USA 281 3.4 02:02:34 10° ESE 02:09:02 55° SSW 02:15:31 10° W
EO 1 Del DPAF 3.4 02:05:33 10° NE 02:09:16 68° SE 02:12:59 10° SSW
Meteor 1-11 Rocket 3.9 02:03:26 10° NW 02:09:25 72° SW 02:15:22 10° SSE
IRAS Rocket 4.3 02:03:47 10° SE 02:09:26 71° SW 02:15:07 10° NW
Cosmos 1437 Rocket 3.2 02:05:21 10° SSW 02:09:27 63° SE 02:13:32 10° NE
Cosmos 1455 2.4 02:06:24 10° WSW 02:10:17 70° NNW 02:14:11 10° NE
Cosmos 1943 Rocket 3.0 02:05:33 10° W 02:10:20 29° SW 02:15:09 10° SSE
Cosmos 2151 Rocket 4.3 02:06:36 10° WNW 02:11:04 59° N 02:15:30 10° E
Cosmos 1606 3.8 02:07:31 10° S 02:11:15 44° ESE 02:14:59 10° NE
Cosmos 2228 3.2 02:06:59 10° WSW 02:11:18 70° NNW 02:15:41 10° NE
Cosmos 1842 Rocket 4.4 02:08:56 10° S 02:13:10 48° ESE 02:17:23 10° NNE
H-2A R/B 3.8 02:09:10 10° ENE 02:13:18 65° NNW 02:17:24 10° W
SL-16 R/B 3.6 02:09:27 10° SSW 02:14:10 28° SE 02:18:53 10° E
ATLAS 3B R/B 4.1 02:09:57 10° SSW 02:14:54 22° SSE 02:20:00 10° ESE
Cosmos 1812 Rocket 3.7 02:10:34 10° SSW 02:14:58 80° SE 02:19:20 10° NE
Cosmos 1666 2.8 02:13:19 10° NW 02:16:59 52° WSW 02:20:40 10° S
Cosmos 968 Rocket 4.2 02:13:30 10° WNW 02:18:09 32° SW 02:22:46 10° S
USA 81 4.5 02:13:06 10° WSW 02:18:21 59° NW 02:23:36 10° NE
Cosmos 372 Rocket 4.3 02:13:40 10° WSW 02:18:37 49° S 02:23:33 10° ESE
Cosmos 1898 Rocket 3.8 02:13:50 10° W 02:18:53 49° S 02:23:59 10° ESE
Cosmos 1634 Rocket 4.5 02:14:35 10° S 02:20:41 63° ESE 02:26:47 10° NNE
SL-08 ROCKET BODY 4.3 02:14:56 10° NW 02:20:52 75° WSW 02:26:44 10° SSE
NPP 4.2 02:15:36 10° NE 02:20:57 59° ESE 02:26:19 10° SSW
Cosmos 2292 Rocket 4.2 02:20:01 10° NNW 02:23:23 28° W 02:26:14 10° SSW
CZ-2C R/B 4.2 02:19:38 10° E 02:24:08 66° N 02:28:43 10° WNW
SL-16 R/B 3.5 02:19:09 10° SW 02:24:39 31° W 02:30:09 10° NNW
ADEOS Rocket 4.3 02:18:08 10° SW 02:25:05 37° WNW 02:32:15 10° N
Cosmos 1869 3.5 02:22:09 10° SSW 02:26:10 73° SE 02:30:14 10° NE
Cosmos 1459 Rocket 4.3 02:19:46 10° WSW 02:26:10 72° NNW 02:32:28 10° ENE
Nimbus 7 Rocket 4.5 02:20:25 10° ENE 02:26:20 88° SSE 02:32:15 10° WSW
Meteor 2-10 Rocket 3.9 02:20:50 10° WSW 02:26:44 80° NNW 02:32:30 10° ENE
IDEFIX/ARIANE 42P 3.5 02:21:40 10° NNE 02:26:48 48° ESE 02:31:56 10° S
PSLV R/B 4.2 02:23:50 10° ESE 02:28:05 79° NNE 02:32:19 10° NW
Cosmos 1242 Rocket 2.7 02:25:10 10° SSW 02:28:36 63° SE 02:32:04 10° NE
Cosmos 2016 Rocket 4.2 02:22:44 10° WSW 02:29:09 75° NNW 02:35:28 10° NE
Cosmos 1733 3.8 02:26:08 10° WNW 02:29:58 61° NNE 02:33:48 10° ESE
Cosmos 1689 Rocket 2.8 02:27:40 10° ESE 02:30:23 52° NNE 02:33:06 10° NW
DMSP B5D2-2 4.2 02:25:21 10° SE 02:30:40 89° NE 02:36:01 10° NW
Cosmos 1656 4.4 02:25:59 10° WSW 02:31:02 37° S 02:36:01 10° ESE
Sich 1 3.6 02:27:14 10° NNW 02:31:22 40° W 02:35:32 10° SSW
Cosmos 1805 Rocket 4.2 02:28:24 10° NNW 02:32:27 37° W 02:36:33 10° SSW
Cosmos 2034 Rocket 4.2 02:26:13 10° SSW 02:32:37 80° ESE 02:39:01 10° NE
Cosmos 1758 4.1 02:28:59 10° WNW 02:33:01 55° N 02:37:00 10° E
Cosmos 1697 Rocket 3.5 02:27:58 10° SW 02:33:06 36° SSE 02:38:14 10° ESE
Cosmos 1500 Rocket 4.4 02:30:12 10° NNW 02:34:03 31° W 02:37:53 10° SSW
Cosmos 2100 Rocket 4.3 02:28:32 10° WSW 02:34:46 70° NNW 02:41:05 10° ENE
Cosmos 1633 Rocket 3.4 02:31:04 10° NNW 02:35:21 48° WSW 02:39:38 10° S
Cosmos 1464 Rocket 4.1 02:31:44 10° SW 02:37:53 86° SE 02:44:06 10° NE
